Tracking 31013 objects as of 10-Jul-2025
HD Live streaming from Space Station
objects crossing your sky now

STARLINK-30434

Track STARLINK-30434 now!
10-day predictions
STARLINK-30434 is classified as:


NORAD ID: 57875
Int'l Code: 2023-144M
Perigee: 565.5 km
Apogee: 567.0 km
Inclination: 43.0 °
Period: 95.8 minutes
Semi major axis: 6937 km
RCS: Unknown
Launch date: September 16, 2023
Source: United States (US)
Launch site: AIR FORCE EASTERN TEST RANGE (AFETR)
Your satellite tracking list
Your tracking list is empty




NASA's NSSDC Master Catalog

Two Line Element Set (TLE):
1 57875U 23144M   25191.20498822  .00000062  00000-0  19641-4 0  9992
2 57875  43.0029 165.1562 0001080 290.9631  69.1095 15.02536904101149
Source of the keplerian elements: AFSPC